Regional Weather Roundup
Issued by NWS

Home | Current Version | Previous Version | Graphics & Text | Print | Product List | Glossary On
Versions: 1 2 3 4 5 6 7 8 9 10 11 12 13 14 15 16 17 18 19 20 21 22 23 24 25 26 27 28 29 30 31 32 33 34 35 36 37 38 39 40 41 42 43 44 45 46 47 48 49 50
000
ASUS43 KDMX 050407
RWRIA

WEATHER ROUNDUP FOR IOWA
NATIONAL WEATHER SERVICE DES MOINES IA
1100 PM CDT MON MAY 04 2015

NOTE: "FAIR" INDICATES FEW OR NO CLOUDS BELOW 12,000 FEET WITH NO
SIGNIFICANT WEATHER AND/OR OBSTRUCTIONS TO VISIBILITY.

* - THESE STATIONS ARE NOT NWS STATIONS...THUS NOT UNDER NWS
QUALITY CONTROL.  THEY ALSO DO NOT REPORT WEATHER SUCH
AS PRECIPITATION OR FOG.

IAZ001>003-012>014-020>022-031>034-043>046-050500-
   NORTHWEST IOWA

CITY           SKY/WX    TMP DP  RH WIND       PRES   REMARKS
CARROLL *      CLOUDY    57  54  88 E6        30.11R
CHEROKEE *     MOCLDY    54  50  87 CALM      30.12S
DENISON *      CLOUDY    55  55 100 E7        30.09R
LE MARS *      CLEAR     57  46  67 SE3       30.14R
ORANGE CITY *  CLEAR     55  41  58 CALM      30.13R
SHELDON *      PTCLDY    54  39  58 NE7       30.12S
SIOUX CITY     CLOUDY    58  49  72 SE5       30.13R
SPENCER        MOCLDY    54  41  61 E8        30.13S
STORM LAKE *   CLOUDY    55  52  88 E9        30.13S
$$

IAZ055>058-069>071-079>083-090>094-050500-
   SOUTHWEST IOWA

CITY           SKY/WX    TMP DP  RH WIND       PRES   REMARKS
ATLANTIC *     CLOUDY    59  57  94 NE8       30.09R
AUDUBON *      LGT RAIN  57  54  88 E7        30.10S
CLARINDA *     CLOUDY    64  64 100 CALM      30.09R FOG
COUNCIL BLFS * CLOUDY    59  59 100 E8        30.09S
CRESTON *      CLOUDY    63  63 100 E12       30.09R FOG
HARLAN  *      DRIZZLE   57  57 100 VRB5      30.12S
LAMONI         LGT RAIN  63  61  93 NE6       30.06F FOG
RED OAK *      CLOUDY    64  63  94 E9        30.08R FOG
SHENANDOAH *   CLOUDY    64  64 100 E6        30.08R FOG
$$

IAZ047>049-059>061-072>074-084-050500-
   CENTRAL IOWA

CITY           SKY/WX    TMP DP  RH WIND       PRES   REMARKS
AMES           CLOUDY    59  54  83 E8        30.08F
ANKENY *       CLOUDY    63  63 100 NE8       30.07F
CHARITON *     LGT RAIN  63  63 100 SE13      30.11R
DES MOINES     CLOUDY    64  60  87 E9        30.07F
GRINNELL*      DRIZZLE   61  61 100 NE12      30.10F
KNOXVILLE *    CLOUDY    64  63  94 E6        30.08R FOG
MARSHALLTOWN   LGT RAIN  61  59  93 E9        30.09F
PELLA *        LGT RAIN  63  63 100 E7        30.10R
PERRY *        CLOUDY    59  55  88 E7        30.09R
$$

IAZ004>006-015-016-023>025-035-036-050500-
   NORTH CENTRAL IOWA

CITY           SKY/WX    TMP DP  RH WIND       PRES   REMARKS
ALGONA *       CLEAR     59  41  51 NE8       30.13F
CLARION *      MOCLDY    57  48  72 E10       30.12S
ESTHERVILLE    MOCLDY    50  36  58 NE8       30.13F
FORT DODGE *   CLOUDY    57  48  72 NE7       30.11F
MASON CITY     CLOUDY    55  45  68 NE9       30.14F
FOREST CITY *  CLEAR     55  37  50 NE6       30.13F
IOWA FALLS *   CLOUDY    59  52  77 NE5       30.12F
$$

IAZ007>011-017>019-026>030-037>042-050>054-066-050500-
   NORTHEAST IOWA

CITY           SKY/WX    TMP DP  RH WIND       PRES   REMARKS
CEDAR RAPIDS   TSTM      63  63 100 E3        30.12S FOG
CHARLES CITY * CLOUDY    61  43  51 NE8       30.14F
CLINTON *      CLOUDY    63  59  88 E15       30.14F
DECORAH *      CLOUDY    61  39  44 NE6       30.14S
DUBUQUE        LGT RAIN  63  60  90 E10       30.15R
MONTICELLO *   LGT RAIN  64  64 100 E13       30.13R
OELWEIN *      CLOUDY    59  55  88 E5        30.15S
WATERLOO       CLOUDY    59  55  87 E5        30.12S
$$

IAZ064-065-067-068-078-050500-
   EAST CENTRAL IOWA

CITY           SKY/WX    TMP DP  RH WIND       PRES   REMARKS
DAVENPORT      RAIN      64  61  90 E13       30.12R FOG
IOWA CITY      TSTM      64  62  93 NE15      30.10S
MT. PLEASANT * CLOUDY    63  63 100 E5        30.08R
MUSCATINE *    LGT RAIN  64  63  94 NE6       30.10R
QUAD CITIES    RAIN      65  62  90 E8        30.10S FOG
$$

IAZ062-063-075>077-085>089-095>099-050500-
   SOUTHEAST IOWA

CITY           SKY/WX    TMP DP  RH WIND       PRES   REMARKS
BURLINGTON     CLOUDY    66  63  90 CALM      30.08R
FAIRFIELD *    MOCLDY    64  63  94 E6        30.08R
FORT MADISON * CLOUDY    64  61  88 S12G17    30.10R
KEOKUK *       LGT RAIN  63  61  94 NE9G16    30.07F
OSKALOOSA *    LGT RAIN  64  61  88 NE12      30.10R
CENTERVILLE *  HVY RAIN  61  61 100 NW13      30.13R
OTTUMWA        TSTM      65  64  97 VRB7      30.11R FOG
WASHINGTON *   MOCLDY    66  66 100 E13       30.07F
$$

ABBREVIATIONS USED IN REMARKS
   TC - TEMPERATURES IN CELSIUS
  WCI - WIND CHILL INDEX
   HX - HEAT INDEX
  VSB - VISIBILITY
$$




USA.gov is the U.S. government's official web portal to all federal, state and local government web resources and services.